Tracking 29892 objects as of 21-Nov-2024
HD Live streaming from Space Station
objects crossing your sky now

LEO 3

Track LEO 3 now!
10-day predictions


NORAD ID: 57392
Int'l Code: 2023-100G
Perigee: 998.7 km
Apogee: 1,026.6 km
Inclination: 99.5 °
Period: 105.2 minutes
Semi major axis: 7383 km
RCS: Unknown
Launch date: July 18, 2023
Source: Canada (CA)
Launch site: Rocket Lab Launch Complex (RLLC)
Your satellite tracking list
Your tracking list is empty




NASA's NSSDC Master Catalog

Two Line Element Set (TLE):
1 57392U 23100G   24325.94973570  .00000031  00000-0  87531-4 0  9994
2 57392  99.4992  86.6358 0018856  54.1034 306.1858 13.68343716 67243
Source of the keplerian elements: AFSPC